| time (UTC) | temp F | wind direction | speed MPH | gust MPH | rain 1hr in | rain 24hr in | rain mn in | humidity % | barometer mb |
| 20260901150008 | 87 | 186 | 6.0 | 10.0 | 0.00 | 0.00 | 0.00 | 69 | 1016.4 |
| 20260901145501 | 87 | 184 | 4.0 | 10.0 | 0.00 | 0.00 | 0.00 | 70 | 1016.5 |
| 20260901145001 | 87 | 179 | 4.0 | 9.0 | 0.00 | 0.00 | 0.00 | 71 | 1016.3 |
| 20260901144456 | 86 | 144 | 7.0 | 8.0 | 0.00 | 0.00 | 0.00 | 73 | 1016.4 |
| 20260901143951 | 86 | 184 | 2.0 | 9.0 | 0.00 | 0.00 | 0.00 | 73 | 1016.4 |
| 20260901143448 | 86 | 189 | 7.0 | 8.0 | 0.00 | 0.00 | 0.00 | 74 | 1016.4 |
| 20260901142944 | 86 | 204 | 5.0 | 9.0 | 0.00 | 0.00 | 0.00 | 75 | 1016.3 |
| 20260901142444 | 85 | 168 | 4.0 | 8.0 | 0.00 | 0.00 | 0.00 | 76 | 1016.4 |
| 20260901141938 | 85 | 170 | 4.0 | 8.0 | 0.00 | 0.00 | 0.00 | 76 | 1016.4 |
| 20260901141433 | 85 | 171 | 4.0 | 11.0 | 0.00 | 0.00 | 0.00 | 77 | 1016.4 |
| 20260901140928 | 84 | 174 | 5.0 | 6.0 | 0.00 | 0.00 | 0.00 | 77 | 1016.5 |
| 20260901140426 | 84 | 192 | 3.0 | 9.0 | 0.00 | 0.00 | 0.00 | 78 | 1016.3 |
| 20260901135926 | 84 | 190 | 7.0 | 8.0 | 0.00 | 0.00 | 0.00 | 78 | 1016.2 |
| 20260901135421 | 84 | 171 | 5.0 | 8.0 | 0.00 | 0.00 | 0.00 | 79 | 1016.1 |
| 20260901134917 | 83 | 146 | 7.0 | 10.0 | 0.00 | 0.00 | 0.00 | 79 | 1016.2 |
| 20260901134412 | 83 | 145 | 4.0 | 7.0 | 0.00 | 0.00 | 0.00 | 80 | 1016.2 |
| 20260901133912 | 83 | 182 | 4.0 | 6.0 | 0.00 | 0.00 | 0.00 | 81 | 1016.1 |
| 20260901133406 | 82 | 182 | 2.0 | 8.0 | 0.00 | 0.00 | 0.00 | 81 | 1016.1 |
| 20260901132905 | 82 | 157 | 3.0 | 8.0 | 0.00 | 0.00 | 0.00 | 82 | 1016.0 |
| 20260901132359 | 82 | 156 | 4.0 | 6.0 | 0.00 | 0.00 | 0.00 | 83 | 1015.9 |
| 20260901131853 | 82 | 185 | 5.0 | 7.0 | 0.00 | 0.00 | 0.00 | 83 | 1015.9 |
| 20260901131352 | 81 | 219 | 3.0 | 5.0 | 0.00 | 0.00 | 0.00 | 84 | 1015.8 |
| 20260901130848 | 81 | 185 | 2.0 | 4.0 | 0.00 | 0.00 | 0.00 | 84 | 1015.9 |
| 20260901130343 | 81 | 205 | 1.0 | 5.0 | 0.00 | 0.00 | 0.00 | 85 | 1015.6 |
| 20260901125840 | 81 | 139 | 4.0 | 5.0 | 0.00 | 0.00 | 0.00 | 85 | 1015.8 |
| 20260901125339 | 80 | 168 | 3.0 | 4.0 | 0.00 | 0.00 | 0.00 | 85 | 1015.8 |
| 20260901124835 | 80 | 185 | 3.0 | 5.0 | 0.00 | 0.00 | 0.00 | 86 | 1015.6 |
| 20260901124330 | 80 | 170 | 2.0 | 4.0 | 0.00 | 0.00 | 0.00 | 86 | 1015.6 |
| 20260901123829 | 80 | 189 | 4.0 | 4.0 | 0.00 | 0.00 | 0.00 | 86 | 1015.5 |
| 20260901123325 | 80 | 178 | 2.0 | 4.0 | 0.00 | 0.00 | 0.00 | 86 | 1015.4 |
| 20260901122823 | 80 | 174 | 3.0 | 4.0 | 0.00 | 0.00 | 0.00 | 86 | 1015.6 |
| 20260901122318 | 80 | 188 | 3.0 | 5.0 | 0.00 | 0.00 | 0.00 | 86 | 1015.7 |
| 20260901121817 | 80 | 183 | 3.0 | 5.0 | 0.00 | 0.00 | 0.00 | 86 | 1015.6 |
| 20260901121313 | 80 | 177 | 2.0 | 4.0 | 0.00 | 0.00 | 0.00 | 85 | 1015.7 |
| 20260901120813 | 80 | 147 | 3.0 | 4.0 | 0.00 | 0.00 | 0.00 | 85 | 1015.6 |
| 20260901120307 | 80 | 147 | 2.0 | 4.0 | 0.00 | 0.00 | 0.00 | 85 | 1015.4 |
| 20260901115803 | 80 | 172 | 3.0 | 5.0 | 0.00 | 0.00 | 0.00 | 85 | 1015.4 |
| 20260901115258 | 80 | 172 | 3.0 | 6.0 | 0.00 | 0.00 | 0.00 | 85 | 1015.5 |
| 20260901114755 | 80 | 165 | 2.0 | 6.0 | 0.00 | 0.00 | 0.00 | 85 | 1015.3 |
| 20260901114250 | 81 | 167 | 3.0 | 6.0 | 0.00 | 0.00 | 0.00 | 85 | 1015.4 |
| 20260901113749 | 81 | 151 | 4.0 | 7.0 | 0.00 | 0.00 | 0.00 | 85 | 1015.2 |
| 20260901113244 | 81 | 151 | 4.0 | 8.0 | 0.00 | 0.00 | 0.00 | 85 | 1015.3 |
| 20260901112743 | 81 | 170 | 4.0 | 6.0 | 0.00 | 0.00 | 0.00 | 84 | 1015.3 |
| 20260901112238 | 81 | 151 | 5.0 | 5.0 | 0.00 | 0.00 | 0.00 | 84 | 1015.3 |
| 20260901111733 | 81 | 195 | 4.0 | 6.0 | 0.00 | 0.00 | 0.00 | 84 | 1015.2 |
| 20260901111232 | 81 | 187 | 7.0 | 7.0 | 0.00 | 0.00 | 0.00 | 84 | 1015.4 |
| 20260901110726 | 81 | 177 | 4.0 | 6.0 | 0.00 | 0.00 | 0.00 | 84 | 1015.3 |
| 20260901110221 | 81 | 189 | 4.0 | 7.0 | 0.00 | 0.00 | 0.00 | 84 | 1015.2 |
| 20260901105718 | 81 | 188 | 3.0 | 6.0 | 0.00 | 0.00 | 0.00 | 83 | 1015.1 |
| 20260901105218 | 81 | 185 | 4.0 | 8.0 | 0.00 | 0.00 | 0.00 | 83 | 1015.3 |
| 20260901104714 | 81 | 197 | 3.0 | 5.0 | 0.00 | 0.00 | 0.00 | 83 | 1015.3 |
| 20260901104209 | 81 | 179 | 6.0 | 7.0 | 0.00 | 0.00 | 0.00 | 83 | 1015.2 |
| 20260901103708 | 81 | 207 | 3.0 | 7.0 | 0.00 | 0.00 | 0.00 | 83 | 1015.2 |
| 20260901103203 | 81 | 216 | 3.0 | 5.0 | 0.00 | 0.00 | 0.00 | 83 | 1015.3 |
| 20260901102658 | 81 | 181 | 5.0 | 8.0 | 0.00 | 0.00 | 0.00 | 82 | 1015.2 |
| 20260901102157 | 81 | 241 | 3.0 | 5.0 | 0.00 | 0.00 | 0.00 | 82 | 1015.3 |
| 20260901101653 | 81 | 184 | 6.0 | 9.0 | 0.00 | 0.00 | 0.00 | 82 | 1015.3 |
| 20260901101153 | 81 | 205 | 5.0 | 7.0 | 0.00 | 0.00 | 0.00 | 82 | 1015.4 |
| 20260901100647 | 81 | 212 | 2.0 | 7.0 | 0.00 | 0.00 | 0.00 | 82 | 1015.4 |
| 20260901100142 | 81 | 171 | 2.0 | 4.0 | 0.00 | 0.00 | 0.00 | 82 | 1015.5 |
| 20260901095640 | 81 | 176 | 2.0 | 4.0 | 0.00 | 0.00 | 0.00 | 82 | 1015.5 |
| 20260901095138 | 81 | 185 | 3.0 | 4.0 | 0.00 | 0.00 | 0.00 | 82 | 1015.5 |
| 20260901094632 | 81 | 179 | 3.0 | 4.0 | 0.00 | 0.00 | 0.00 | 82 | 1015.3 |
| 20260901094127 | 81 | 161 | 3.0 | 4.0 | 0.00 | 0.00 | 0.00 | 82 | 1015.2 |
| 20260901093621 | 81 | 171 | 2.0 | 6.0 | 0.00 | 0.00 | 0.00 | 82 | 1015.5 |
| 20260901093115 | 81 | 181 | 3.0 | 5.0 | 0.00 | 0.00 | 0.00 | 82 | 1015.4 |
| 20260901092611 | 82 | 167 | 2.0 | 4.0 | 0.00 | 0.00 | 0.00 | 82 | 1015.4 |
| 20260901092108 | 82 | 159 | 3.0 | 6.0 | 0.00 | 0.00 | 0.00 | 82 | 1015.6 |
| 20260901091603 | 82 | 195 | 3.0 | 4.0 | 0.00 | 0.00 | 0.00 | 82 | 1015.5 |
| 20260901091058 | 82 | 165 | 3.0 | 9.0 | 0.00 | 0.00 | 0.00 | 82 | 1015.5 |
| 20260901090557 | 82 | 181 | 3.0 | 4.0 | 0.00 | 0.00 | 0.00 | 81 | 1015.7 |
| 20260901090053 | 82 | 165 | 3.0 | 5.0 | 0.00 | 0.00 | 0.00 | 82 | 1015.8 |
| 20260901085548 | 82 | 152 | 4.0 | 7.0 | 0.00 | 0.00 | 0.00 | 82 | 1015.6 |
| 20260901085044 | 82 | 195 | 3.0 | 6.0 | 0.00 | 0.00 | 0.00 | 82 | 1015.8 |
| 20260901084540 | 82 | 160 | 4.0 | 4.0 | 0.00 | 0.00 | 0.00 | 82 | 1015.7 |
| 20260901084036 | 82 | 182 | 4.0 | 4.0 | 0.00 | 0.00 | 0.00 | 81 | 1015.6 |
| 20260901083530 | 82 | 178 | 5.0 | 5.0 | 0.00 | 0.00 | 0.00 | 81 | 1015.8 |
| 20260901083028 | 82 | 175 | 2.0 | 5.0 | 0.00 | 0.00 | 0.00 | 81 | 1015.6 |
| 20260901082524 | 82 | 200 | 4.0 | 4.0 | 0.00 | 0.00 | 0.00 | 81 | 1015.9 |
| 20260901082019 | 82 | 176 | 4.0 | 7.0 | 0.00 | 0.00 | 0.00 | 81 | 1015.7 |
| 20260901081514 | 82 | 158 | 3.0 | 6.0 | 0.00 | 0.00 | 0.00 | 81 | 1015.9 |
| 20260901081008 | 82 | 201 | 4.0 | 5.0 | 0.00 | 0.00 | 0.00 | 81 | 1015.8 |
| 20260901080508 | 82 | 176 | 3.0 | 5.0 | 0.00 | 0.00 | 0.00 | 81 | 1015.6 |
| 20260901080002 | 82 | 175 | 2.0 | 4.0 | 0.00 | 0.00 | 0.00 | 81 | 1015.7 |
| 20260901075458 | 82 | 175 | 5.0 | 5.0 | 0.00 | 0.00 | 0.00 | 81 | 1015.7 |
| 20260901074956 | 82 | 154 | 5.0 | 5.0 | 0.00 | 0.00 | 0.00 | 81 | 1015.9 |
| 20260901074451 | 82 | 198 | 3.0 | 5.0 | 0.00 | 0.00 | 0.00 | 81 | 1015.9 |
| 20260901073946 | 82 | 140 | 3.0 | 5.0 | 0.00 | 0.00 | 0.00 | 81 | 1016.2 |
| 20260901073443 | 82 | 172 | 3.0 | 6.0 | 0.00 | 0.00 | 0.00 | 81 | 1015.8 |
| 20260901072937 | 82 | 143 | 3.0 | 4.0 | 0.00 | 0.00 | 0.00 | 81 | 1015.9 |
| 20260901072432 | 82 | 181 | 2.0 | 6.0 | 0.00 | 0.00 | 0.00 | 81 | 1015.9 |
| 20260901071927 | 83 | 183 | 2.0 | 4.0 | 0.00 | 0.00 | 0.00 | 80 | 1015.8 |
| 20260901071425 | 83 | 173 | 3.0 | 5.0 | 0.00 | 0.00 | 0.00 | 80 | 1016.1 |
| 20260901070920 | 83 | 178 | 2.0 | 7.0 | 0.00 | 0.00 | 0.00 | 80 | 1016.2 |
| 20260901070415 | 83 | 187 | 3.0 | 4.0 | 0.00 | 0.00 | 0.00 | 80 | 1016.3 |
| 20260901065914 | 83 | 153 | 6.0 | 7.0 | 0.00 | 0.00 | 0.00 | 80 | 1016.0 |
| 20260901065410 | 83 | 165 | 4.0 | 6.0 | 0.00 | 0.00 | 0.00 | 80 | 1016.2 |
| 20260901064904 | 83 | 173 | 2.0 | 6.0 | 0.00 | 0.00 | 0.00 | 80 | 1016.1 |
| 20260901064401 | 83 | 159 | 3.0 | 5.0 | 0.00 | 0.00 | 0.00 | 80 | 1016.2 |
| 20260901063858 | 83 | 215 | 2.0 | 5.0 | 0.00 | 0.00 | 0.00 | 80 | 1016.1 |
| 20260901063354 | 83 | 148 | 8.0 | 9.0 | 0.00 | 0.00 | 0.00 | 80 | 1016.1 |
| 20260901062844 | 83 | 163 | 4.0 | 9.0 | 0.00 | 0.00 | 0.00 | 80 | 1016.3 |
| 20260901062340 | 83 | 216 | 1.0 | 5.0 | 0.00 | 0.00 | 0.00 | 80 | 1016.2 |
| 20260901061835 | 83 | 165 | 4.0 | 7.0 | 0.00 | 0.00 | 0.00 | 80 | 1016.2 |
| 20260901061330 | 83 | 157 | 5.0 | 7.0 | 0.00 | 0.00 | 0.00 | 80 | 1016.3 |
| 20260901060825 | 83 | 186 | 4.0 | 7.0 | 0.00 | 0.00 | 0.00 | 80 | 1016.4 |
| 20260901060321 | 83 | 140 | 11.0 | 11.0 | 0.00 | 0.00 | 0.00 | 80 | 1016.3 |
| 20260901055815 | 83 | 159 | 2.0 | 9.0 | 0.00 | 0.00 | 0.00 | 80 | 1016.4 |
| 20260901055312 | 83 | 187 | 2.0 | 6.0 | 0.00 | 0.00 | 0.00 | 80 | 1016.4 |
| 20260901054809 | 83 | 156 | 5.0 | 8.0 | 0.00 | 0.00 | 0.00 | 79 | 1016.4 |
| 20260901054305 | 83 | 151 | 5.0 | 7.0 | 0.00 | 0.00 | 0.00 | 79 | 1016.3 |
| 20260901053801 | 83 | 171 | 5.0 | 9.0 | 0.00 | 0.00 | 0.00 | 79 | 1016.3 |
| 20260901053256 | 84 | 171 | 7.0 | 9.0 | 0.00 | 0.00 | 0.00 | 79 | 1016.2 |
| 20260901052751 | 84 | 170 | 5.0 | 11.0 | 0.00 | 0.00 | 0.00 | 79 | 1016.2 |
| 20260901052247 | 84 | 155 | 7.0 | 10.0 | 0.00 | 0.00 | 0.00 | 79 | 1016.3 |
| 20260901051745 | 84 | 149 | 6.0 | 9.0 | 0.00 | 0.00 | 0.00 | 78 | 1016.4 |
| 20260901051240 | 84 | 160 | 9.0 | 13.0 | 0.00 | 0.00 | 0.00 | 78 | 1016.4 |
| 20260901050736 | 84 | 159 | 8.0 | 13.0 | 0.00 | 0.00 | 0.00 | 78 | 1016.3 |
| 20260901050230 | 84 | 156 | 5.0 | 8.0 | 0.00 | 0.00 | 0.00 | 78 | 1016.3 |
| 20260901045720 | 84 | 157 | 2.0 | 7.0 | 0.00 | 0.00 | 0.00 | 78 | 1016.4 |
| 20260901045215 | 84 | 149 | 4.0 | 9.0 | 0.00 | 0.00 | 0.00 | 77 | 1016.3 |
| 20260901044710 | 84 | 177 | 5.0 | 9.0 | 0.00 | 0.00 | 0.00 | 77 | 1016.4 |
| 20260901044207 | 84 | 153 | 6.0 | 13.0 | 0.00 | 0.00 | 0.00 | 77 | 1016.4 |
| 20260901043702 | 84 | 146 | 9.0 | 11.0 | 0.00 | 0.00 | 0.00 | 77 | 1016.4 |
| 20260901043157 | 84 | 139 | 10.0 | 13.0 | 0.00 | 0.00 | 0.00 | 76 | 1016.4 |
| 20260901042656 | 84 | 142 | 5.0 | 14.0 | 0.00 | 0.00 | 0.00 | 76 | 1016.1 |
| 20260901042151 | 84 | 161 | 7.0 | 13.0 | 0.00 | 0.00 | 0.00 | 76 | 1016.3 |
| 20260901041642 | 84 | 127 | 13.0 | 15.0 | 0.00 | 0.00 | 0.00 | 75 | 1016.6 |
| 20260901041136 | 84 | 133 | 11.0 | 12.0 | 0.00 | 0.00 | 0.00 | 75 | 1016.3 |
| 20260901040635 | 85 | 146 | 9.0 | 15.0 | 0.00 | 0.00 | 0.00 | 74 | 1016.4 |
| 20260901040129 | 85 | 141 | 9.0 | 12.0 | 0.00 | 0.00 | 0.00 | 73 | 1016.3 |
| 20260901035627 | 85 | 137 | 6.0 | 13.0 | 0.00 | 0.00 | 0.00 | 73 | 1016.3 |
| 20260901035126 | 85 | 148 | 12.0 | 14.0 | 0.00 | 0.00 | 0.00 | 73 | 1016.2 |
| 20260901034621 | 85 | 161 | 7.0 | 17.0 | 0.00 | 0.00 | 0.00 | 73 | 1016.2 |
| 20260901034115 | 85 | 140 | 6.0 | 11.0 | 0.00 | 0.00 | 0.00 | 72 | 1016.1 |
| 20260901033615 | 85 | 138 | 10.0 | 13.0 | 0.00 | 0.00 | 0.00 | 72 | 1016.4 |
| 20260901033114 | 85 | 145 | 11.0 | 15.0 | 0.00 | 0.00 | 0.00 | 72 | 1016.2 |
| 20260901032613 | 85 | 133 | 11.0 | 13.0 | 0.00 | 0.00 | 0.00 | 71 | 1016.2 |
| 20260901032108 | 85 | 156 | 9.0 | 11.0 | 0.00 | 0.00 | 0.00 | 71 | 1016.1 |
| 20260901031604 | 86 | 148 | 9.0 | 12.0 | 0.00 | 0.00 | 0.00 | 70 | 1016.0 |
| 20260901031100 | 86 | 143 | 6.0 | 14.0 | 0.00 | 0.00 | 0.00 | 70 | 1015.9 |
| 20260901030559 | 86 | 150 | 11.0 | 17.0 | 0.00 | 0.00 | 0.00 | 69 | 1015.7 |
| 20260901030054 | 86 | 141 | 7.0 | 17.0 | 0.00 | 0.00 | 0.00 | 69 | 1015.5 |
| 20260901025548 | 86 | 149 | 10.0 | 13.0 | 0.00 | 0.00 | 0.00 | 68 | 1015.5 |
| 20260901025043 | 86 | 143 | 5.0 | 11.0 | 0.00 | 0.00 | 0.00 | 67 | 1015.5 |
| 20260901024538 | 86 | 154 | 4.0 | 11.0 | 0.00 | 0.00 | 0.00 | 67 | 1015.4 |
| 20260901024037 | 86 | 149 | 6.0 | 17.0 | 0.00 | 0.00 | 0.00 | 66 | 1015.0 |
| 20260901023536 | 87 | 132 | 7.0 | 15.0 | 0.00 | 0.00 | 0.00 | 66 | 1014.9 |
| 20260901023031 | 87 | 135 | 11.0 | 15.0 | 0.00 | 0.00 | 0.00 | 66 | 1014.9 |
| 20260901022526 | 87 | 132 | 13.0 | 18.0 | 0.00 | 0.00 | 0.00 | 66 | 1014.7 |
| 20260901022021 | 87 | 134 | 12.0 | 18.0 | 0.00 | 0.00 | 0.00 | 65 | 1014.9 |
| 20260901021517 | 87 | 143 | 16.0 | 19.0 | 0.00 | 0.00 | 0.00 | 65 | 1014.7 |
| 20260901021012 | 87 | 143 | 9.0 | 12.0 | 0.00 | 0.00 | 0.00 | 64 | 1014.6 |
| 20260901020507 | 87 | 133 | 10.0 | 15.0 | 0.00 | 0.00 | 0.00 | 63 | 1014.4 |
| 20260901020002 | 88 | 157 | 8.0 | 22.0 | 0.00 | 0.00 | 0.00 | 63 | 1014.4 |
| 20260901015458 | 88 | 133 | 12.0 | 16.0 | 0.00 | 0.00 | 0.00 | 62 | 1014.1 |
| 20260901014957 | 88 | 141 | 6.0 | 14.0 | 0.00 | 0.00 | 0.00 | 61 | 1014.1 |
| 20260901014453 | 89 | 129 | 10.0 | 19.0 | 0.00 | 0.00 | 0.00 | 60 | 1013.9 |
| 20260901013949 | 89 | 136 | 9.0 | 14.0 | 0.00 | 0.00 | 0.00 | 59 | 1013.9 |
| 20260901013444 | 89 | 132 | 9.0 | 15.0 | 0.00 | 0.00 | 0.00 | 59 | 1013.9 |
| 20260901012940 | 89 | 142 | 10.0 | 18.0 | 0.00 | 0.00 | 0.00 | 58 | 1013.9 |
| 20260901012439 | 90 | 132 | 15.0 | 18.0 | 0.00 | 0.00 | 0.00 | 57 | 1013.8 |
| 20260901011935 | 90 | 146 | 10.0 | 18.0 | 0.00 | 0.00 | 0.00 | 56 | 1013.7 |
| 20260901011431 | 90 | 127 | 9.0 | 22.0 | 0.00 | 0.00 | 0.00 | 54 | 1013.7 |
| 20260901010929 | 91 | 139 | 13.0 | 19.0 | 0.00 | 0.00 | 0.00 | 53 | 1013.7 |
| 20260901010424 | 91 | 144 | 10.0 | 19.0 | 0.00 | 0.00 | 0.00 | 52 | 1013.6 |
| 20260901005923 | 91 | 157 | 11.0 | 14.0 | 0.00 | 0.00 | 0.00 | 51 | 1013.6 |
| 20260901005418 | 91 | 135 | 16.0 | 19.0 | 0.00 | 0.00 | 0.00 | 51 | 1013.4 |
| 20260901004913 | 92 | 128 | 7.0 | 18.0 | 0.00 | 0.00 | 0.00 | 50 | 1013.4 |
| 20260901004412 | 92 | 159 | 12.0 | 20.0 | 0.00 | 0.00 | 0.00 | 49 | 1013.3 |
| 20260901003907 | 93 | 154 | 6.0 | 16.0 | 0.00 | 0.00 | 0.00 | 49 | 1013.1 |
| 20260901003403 | 93 | 133 | 17.0 | 18.0 | 0.00 | 0.00 | 0.00 | 49 | 1013.2 |
| 20260901002901 | 93 | 134 | 15.0 | 19.0 | 0.00 | 0.00 | 0.00 | 48 | 1013.0 |
| 20260901002400 | 93 | 142 | 9.0 | 19.0 | 0.00 | 0.00 | 0.00 | 47 | 1013.0 |
| 20260901001855 | 94 | 141 | 8.0 | 21.0 | 0.00 | 0.00 | 0.00 | 46 | 1013.2 |
| 20260901001350 | 94 | 147 | 8.0 | 16.0 | 0.00 | 0.00 | 0.00 | 46 | 1013.1 |
| 20260901000846 | 95 | 147 | 14.0 | 21.0 | 0.00 | 0.00 | 0.00 | 45 | 1012.9 |
| 20260901000343 | 95 | 156 | 8.0 | 17.0 | 0.00 | 0.00 | 0.00 | 45 | 1012.9 |
| 20260831235839 | 95 | 134 | 15.0 | 20.0 | 0.00 | 0.00 | 0.00 | 44 | 1012.8 |
| 20260831235335 | 96 | 150 | 10.0 | 15.0 | 0.00 | 0.00 | 0.00 | 44 | 1012.6 |
| 20260831234831 | 96 | 141 | 12.0 | 18.0 | 0.00 | 0.00 | 0.00 | 44 | 1012.5 |
| 20260831234330 | 96 | 123 | 11.0 | 15.0 | 0.00 | 0.00 | 0.00 | 43 | 1012.5 |
| 20260831233826 | 96 | 157 | 14.0 | 20.0 | 0.00 | 0.00 | 0.00 | 42 | 1012.3 |
| 20260831233321 | 96 | 155 | 10.0 | 18.0 | 0.00 | 0.00 | 0.00 | 42 | 1012.3 |
| 20260831232816 | 97 | 147 | 13.0 | 19.0 | 0.00 | 0.00 | 0.00 | 42 | 1012.4 |
| 20260831232312 | 97 | 151 | 10.0 | 20.0 | 0.00 | 0.00 | 0.00 | 42 | 1012.4 |
| 20260831231808 | 97 | 128 | 11.0 | 19.0 | 0.00 | 0.00 | 0.00 | 41 | 1012.5 |
| 20260831231305 | 98 | 156 | 13.0 | 22.0 | 0.00 | 0.00 | 0.00 | 41 | 1012.5 |
| 20260831230800 | 98 | 139 | 11.0 | 22.0 | 0.00 | 0.00 | 0.00 | 40 | 1012.4 |
| 20260831230255 | 98 | 131 | 13.0 | 14.0 | 0.00 | 0.00 | 0.00 | 40 | 1012.3 |
| 20260831225754 | 99 | 151 | 14.0 | 19.0 | 0.00 | 0.00 | 0.00 | 39 | 1012.4 |
| 20260831225249 | 99 | 130 | 8.0 | 15.0 | 0.00 | 0.00 | 0.00 | 39 | 1012.4 |
| 20260831224745 | 99 | 131 | 9.0 | 13.0 | 0.00 | 0.00 | 0.00 | 37 | 1012.4 |
| 20260831224240 | 100 | 166 | 9.0 | 15.0 | 0.00 | 0.00 | 0.00 | 36 | 1012.4 |
| 20260831223735 | 99 | 144 | 9.0 | 13.0 | 0.00 | 0.00 | 0.00 | 36 | 1012.3 |
| 20260831223231 | 100 | 133 | 14.0 | 15.0 | 0.00 | 0.00 | 0.00 | 33 | 1012.4 |
| 20260831222727 | 100 | 152 | 8.0 | 13.0 | 0.00 | 0.00 | 0.00 | 32 | 1012.5 |
| 20260831222222 | 100 | 173 | 6.0 | 12.0 | 0.00 | 0.00 | 0.00 | 33 | 1012.5 |
| 20260831221718 | 100 | 152 | 8.0 | 13.0 | 0.00 | 0.00 | 0.00 | 34 | 1012.4 |
| 20260831221213 | 101 | 184 | 4.0 | 11.0 | 0.00 | 0.00 | 0.00 | 34 | 1012.5 |
| 20260831220708 | 100 | 137 | 8.0 | 11.0 | 0.00 | 0.00 | 0.00 | 34 | 1012.6 |
| 20260831220203 | 100 | 155 | 12.0 | 18.0 | 0.00 | 0.00 | 0.00 | 35 | 1012.6 |
| 20260831215658 | 100 | 153 | 10.0 | 15.0 | 0.00 | 0.00 | 0.00 | 35 | 1012.5 |
| 20260831215154 | 100 | 156 | 9.0 | 12.0 | 0.00 | 0.00 | 0.00 | 35 | 1012.7 |
| 20260831214651 | 100 | 146 | 10.0 | 15.0 | 0.00 | 0.00 | 0.00 | 35 | 1012.9 |
| 20260831214147 | 100 | 143 | 7.0 | 13.0 | 0.00 | 0.00 | 0.00 | 34 | 1012.6 |
| 20260831213637 | 100 | 160 | 6.0 | 14.0 | 0.00 | 0.00 | 0.00 | 35 | 1012.8 |
| 20260831213132 | 100 | 134 | 11.0 | 17.0 | 0.00 | 0.00 | 0.00 | 35 | 1012.8 |
| 20260831212628 | 101 | 167 | 8.0 | 17.0 | 0.00 | 0.00 | 0.00 | 35 | 1012.8 |
| 20260831212124 | 101 | 169 | 7.0 | 14.0 | 0.00 | 0.00 | 0.00 | 34 | 1013.1 |
| 20260831211623 | 101 | 124 | 11.0 | 14.0 | 0.00 | 0.00 | 0.00 | 35 | 1013.1 |
| 20260831211118 | 101 | 140 | 11.0 | 15.0 | 0.00 | 0.00 | 0.00 | 35 | 1013.1 |
| 20260831210613 | 101 | 146 | 9.0 | 17.0 | 0.00 | 0.00 | 0.00 | 35 | 1013.1 |
| 20260831210109 | 101 | 174 | 4.0 | 11.0 | 0.00 | 0.00 | 0.00 | 33 | 1013.1 |
| 20260831205608 | 101 | 137 | 19.0 | 21.0 | 0.00 | 0.00 | 0.00 | 33 | 1013.1 |
| 20260831205105 | 101 | 150 | 5.0 | 13.0 | 0.00 | 0.00 | 0.00 | 34 | 1013.2 |
| 20260831204559 | 102 | 175 | 6.0 | 12.0 | 0.00 | 0.00 | 0.00 | 31 | 1013.3 |
| 20260831204057 | 102 | 167 | 7.0 | 8.0 | 0.00 | 0.00 | 0.00 | 30 | 1013.4 |
| 20260831203552 | 103 | 160 | 6.0 | 15.0 | 0.00 | 0.00 | 0.00 | 30 | 1013.6 |
| 20260831203052 | 102 | 133 | 14.0 | 16.0 | 0.00 | 0.00 | 0.00 | 31 | 1013.6 |
| 20260831202550 | 102 | 92 | 4.0 | 9.0 | 0.00 | 0.00 | 0.00 | 32 | 1013.6 |
| 20260831202050 | 101 | 9 | 3.0 | 9.0 | 0.00 | 0.00 | 0.00 | 32 | 1014.0 |
| 20260831201549 | 101 | 208 | 4.0 | 11.0 | 0.00 | 0.00 | 0.00 | 33 | 1013.9 |
| 20260831201045 | 101 | 159 | 5.0 | 13.0 | 0.00 | 0.00 | 0.00 | 33 | 1013.8 |
| 20260831200540 | 101 | 150 | 6.0 | 11.0 | 0.00 | 0.00 | 0.00 | 35 | 1013.9 |
| 20260831200035 | 101 | 146 | 13.0 | 16.0 | 0.00 | 0.00 | 0.00 | 35 | 1014.0 |
| 20260831195530 | 101 | 123 | 7.0 | 21.0 | 0.00 | 0.00 | 0.00 | 35 | 1014.0 |
| 20260831195025 | 101 | 190 | 3.0 | 13.0 | 0.00 | 0.00 | 0.00 | 36 | 1014.1 |
| 20260831194521 | 100 | 157 | 8.0 | 11.0 | 0.00 | 0.00 | 0.00 | 36 | 1014.1 |
| 20260831194020 | 100 | 141 | 10.0 | 14.0 | 0.00 | 0.00 | 0.00 | 36 | 1014.1 |
| 20260831193515 | 102 | 154 | 8.0 | 14.0 | 0.00 | 0.00 | 0.00 | 35 | 1014.4 |
| 20260831193005 | 101 | 181 | 4.0 | 13.0 | 0.00 | 0.00 | 0.00 | 35 | 1014.4 |
| 20260831192459 | 100 | 195 | 2.0 | 11.0 | 0.00 | 0.00 | 0.00 | 35 | 1014.3 |
| 20260831191954 | 100 | 165 | 7.0 | 15.0 | 0.00 | 0.00 | 0.00 | 35 | 1014.4 |
| 20260831191450 | 100 | 138 | 3.0 | 9.0 | 0.00 | 0.00 | 0.00 | 34 | 1014.8 |
| 20260831190946 | 101 | 155 | 6.0 | 13.0 | 0.00 | 0.00 | 0.00 | 37 | 1014.7 |
| 20260831190441 | 100 | 133 | 3.0 | 6.0 | 0.00 | 0.00 | 0.00 | 36 | 1014.8 |
| 20260831185941 | 99 | 139 | 9.0 | 9.0 | 0.00 | 0.00 | 0.00 | 38 | 1014.6 |
| 20260831185437 | 100 | 147 | 8.0 | 11.0 | 0.00 | 0.00 | 0.00 | 36 | 1014.9 |
| 20260831184936 | 99 | 139 | 9.0 | 12.0 | 0.00 | 0.00 | 0.00 | 37 | 1015.0 |
| 20260831184431 | 100 | 152 | 8.0 | 15.0 | 0.00 | 0.00 | 0.00 | 36 | 1015.1 |
| 20260831183926 | 100 | 170 | 5.0 | 14.0 | 0.00 | 0.00 | 0.00 | 37 | 1015.0 |
| 20260831183425 | 99 | 170 | 5.0 | 6.0 | 0.00 | 0.00 | 0.00 | 38 | 1015.0 |
| 20260831182920 | 99 | 207 | 6.0 | 10.0 | 0.00 | 0.00 | 0.00 | 37 | 1015.0 |
| 20260831182415 | 98 | 163 | 5.0 | 11.0 | 0.00 | 0.00 | 0.00 | 41 | 1015.3 |
| 20260831181910 | 98 | 158 | 3.0 | 13.0 | 0.00 | 0.00 | 0.00 | 39 | 1015.3 |
| 20260831181406 | 99 | 153 | 9.0 | 12.0 | 0.00 | 0.00 | 0.00 | 38 | 1015.5 |
| 20260831180905 | 99 | 177 | 4.0 | 10.0 | 0.00 | 0.00 | 0.00 | 39 | 1015.4 |
| 20260831180400 | 98 | 193 | 4.0 | 13.0 | 0.00 | 0.00 | 0.00 | 41 | 1015.5 |
| 20260831175859 | 98 | 199 | 8.0 | 11.0 | 0.00 | 0.00 | 0.00 | 42 | 1015.6 |
| 20260831175355 | 97 | 179 | 7.0 | 13.0 | 0.00 | 0.00 | 0.00 | 42 | 1015.7 |
| 20260831174851 | 97 | 144 | 7.0 | 10.0 | 0.00 | 0.00 | 0.00 | 43 | 1015.7 |
| 20260831174346 | 98 | 138 | 9.0 | 12.0 | 0.00 | 0.00 | 0.00 | 41 | 1015.8 |
| 20260831173845 | 96 | 164 | 6.0 | 13.0 | 0.00 | 0.00 | 0.00 | 42 | 1015.8 |
| 20260831173340 | 96 | 149 | 7.0 | 11.0 | 0.00 | 0.00 | 0.00 | 44 | 1016.0 |
| 20260831172836 | 96 | 173 | 7.0 | 10.0 | 0.00 | 0.00 | 0.00 | 45 | 1015.9 |
| 20260831172331 | 96 | 176 | 6.0 | 9.0 | 0.00 | 0.00 | 0.00 | 46 | 1016.2 |
| 20260831171831 | 96 | 159 | 7.0 | 11.0 | 0.00 | 0.00 | 0.00 | 45 | 1016.1 |
| 20260831171327 | 96 | 129 | 10.0 | 12.0 | 0.00 | 0.00 | 0.00 | 44 | 1016.0 |
| 20260831170824 | 95 | 226 | 3.0 | 11.0 | 0.00 | 0.00 | 0.00 | 46 | 1016.2 |
| 20260831170320 | 95 | 169 | 6.0 | 17.0 | 0.00 | 0.00 | 0.00 | 48 | 1016.1 |
| 20260831165816 | 94 | 190 | 5.0 | 10.0 | 0.00 | 0.00 | 0.00 | 49 | 1016.3 |
| 20260831165312 | 94 | 149 | 5.0 | 13.0 | 0.00 | 0.00 | 0.00 | 50 | 1016.2 |
| 20260831164808 | 93 | 152 | 5.0 | 17.0 | 0.00 | 0.00 | 0.00 | 52 | 1016.1 |
| 20260831164304 | 94 | 170 | 7.0 | 10.0 | 0.00 | 0.00 | 0.00 | 51 | 1016.2 |
| 20260831163759 | 93 | 156 | 5.0 | 10.0 | 0.00 | 0.00 | 0.00 | 54 | 1016.2 |
| 20260831163255 | 92 | 166 | 6.0 | 9.0 | 0.00 | 0.00 | 0.00 | 54 | 1016.3 |
| 20260831162753 | 92 | 170 | 9.0 | 12.0 | 0.00 | 0.00 | 0.00 | 53 | 1016.2 |
| 20260831162248 | 93 | 167 | 7.0 | 10.0 | 0.00 | 0.00 | 0.00 | 54 | 1016.4 |
| 20260831161742 | 92 | 147 | 9.0 | 11.0 | 0.00 | 0.00 | 0.00 | 56 | 1016.3 |
| 20260831161238 | 92 | 149 | 15.0 | 15.0 | 0.00 | 0.00 | 0.00 | 56 | 1016.3 |
| 20260831160737 | 92 | 196 | 5.0 | 12.0 | 0.00 | 0.00 | 0.00 | 56 | 1016.3 |
| 20260831160227 | 92 | 181 | 4.0 | 9.0 | 0.00 | 0.00 | 0.00 | 57 | 1016.4 |
| 20260831155726 | 91 | 190 | 6.0 | 10.0 | 0.00 | 0.00 | 0.00 | 59 | 1016.4 |
| 20260831155222 | 90 | 164 | 7.0 | 10.0 | 0.00 | 0.00 | 0.00 | 60 | 1016.3 |
| 20260831154718 | 90 | 142 | 4.0 | 9.0 | 0.00 | 0.00 | 0.00 | 60 | 1016.4 |
| 20260831154214 | 91 | 165 | 5.0 | 11.0 | 0.00 | 0.00 | 0.00 | 60 | 1016.4 |
| 20260831153713 | 90 | 173 | 4.0 | 11.0 | 0.00 | 0.00 | 0.00 | 61 | 1016.4 |
| 20260831153208 | 90 | 229 | 5.0 | 9.0 | 0.00 | 0.00 | 0.00 | 62 | 1016.3 |
| 20260831152704 | 89 | 229 | 6.0 | 9.0 | 0.00 | 0.00 | 0.00 | 64 | 1016.5 |
| 20260831152200 | 89 | 173 | 5.0 | 8.0 | 0.00 | 0.00 | 0.00 | 65 | 1016.4 |
| 20260831151654 | 89 | 142 | 7.0 | 12.0 | 0.00 | 0.00 | 0.00 | 64 | 1016.5 |
| 20260831151148 | 89 | 152 | 8.0 | 10.0 | 0.00 | 0.00 | 0.00 | 65 | 1016.6 |
| 20260831150643 | 88 | 174 | 4.0 | 10.0 | 0.00 | 0.00 | 0.00 | 67 | 1016.3 |